CW5404 Weather Reports


Display with metric or nautical units.
time (UTC)temp
F
wind
direction
speed
MPH
gust
MPH
rain 1hr
in
rain 24hr
in
rain mn
in
humidity
%
barometer
mb
20260510211357 68 125 0.0 6.0 0.00 0.00 0.00 51 1018.9
20260510210927 68 76 3.0 6.0 0.00 0.00 0.00 52 1018.9
20260510210428 68 98 2.0 3.0 0.00 0.00 0.00 54 1018.9
20260510205427 68 198 2.0 4.0 0.00 0.00 0.00 57 1018.8
20260510204928 68 268 0.0 5.0 0.00 0.00 0.00 55 1018.8
20260510204358 68 76 1.0 5.0 0.00 0.00 0.00 55 1018.8
20260510203927 68 117 5.0 6.0 0.00 0.00 0.00 56 1018.8
20260510202928 68 109 1.0 6.0 0.00 0.00 0.00 56 1018.8
20260510202427 69 40 0.0 6.0 0.00 0.00 0.00 54 1019.1
20260510201427 69 275 0.0 5.0 0.00 0.00 0.00 58 1019.1
20260510200857 68 246 1.0 5.0 0.00 0.00 0.00 55 1018.9
20260510200427 67 121 0.0 5.0 0.00 0.00 0.00 57 1018.9
20260510195357 67 171 2.0 4.0 0.00 0.00 0.00 56 1018.9
20260510194857 67 213 4.0 4.0 0.00 0.00 0.00 56 1018.9
20260510193428 66 113 2.0 6.0 0.00 0.00 0.00 59 1019.2
20260510192927 66 86 0.0 6.0 0.00 0.00 0.00 57 1019.2
20260510192357 67 94 2.0 5.0 0.00 0.00 0.00 55 1019.1
20260510191927 67 338 2.0 5.0 0.00 0.00 0.00 62 1019.1
20260510190927 64 101 1.0 4.0 0.00 0.00 0.00 65 1019.2
20260510190358 63 124 0.0 4.0 0.00 0.00 0.00 65 1019.1
20260510185927 63 46 0.0 4.0 0.00 0.00 0.00 67 1019.1
20260510184927 63 94 0.0 1.0 0.00 0.00 0.00 66 1019.0
20260510184427 63 54 0.0 0.0 0.00 0.00 0.00 66 1019.0
20260510183927 63 51 0.0 3.0 0.00 0.00 0.00 66 1019.3
20260510182857 64 175 0.0 2.0 0.00 0.00 0.00 64 1019.3
20260510182427 64 75 0.0 3.0 0.00 0.00 0.00 66 1018.8
20260510181927 64 53 2.0 5.0 0.00 0.00 0.00 65 1018.8
20260510181427 64 100 3.0 5.0 0.00 0.00 0.00 66 1018.8
20260510180927 64 186 1.0 5.0 0.00 0.00 0.00 65 1018.8
20260510180427 64 130 1.0 5.0 0.00 0.00 0.00 67 1018.8
20260510175927 63 101 0.0 5.0 0.00 0.00 0.00 67 1018.8
20260510175356 63 215 0.0 4.0 0.00 0.00 0.00 66 1018.8
20260510174927 63 194 2.0 4.0 0.00 0.00 0.00 66 1018.8
20260510174426 63 219 2.0 5.0 0.00 0.00 0.00 68 1018.8
20260510173926 63 209 1.0 5.0 0.00 0.00 0.00 66 1018.7
20260510173356 62 197 0.0 5.0 0.00 0.00 0.00 66 1018.7
20260510172926 62 164 0.0 5.0 0.00 0.00 0.00 68 1018.7
20260510172426 62 94 0.0 5.0 0.00 0.00 0.00 69 1018.8
20260510171927 62 98 5.0 5.0 0.00 0.00 0.00 70 1018.8
20260510171356 62 108 2.0 3.0 0.00 0.00 0.00 70 1018.8
20260510170856 62 123 0.0 0.0 0.00 0.00 0.00 72 1018.8
20260510170426 61 161 0.0 0.0 0.00 0.00 0.00 71 1018.8
20260510165926 61 61 0.0 0.0 0.00 0.00 0.00 71 1018.8
20260510165426 61 36 0.0 0.0 0.00 0.00 0.00 72 1018.6
20260510164926 60 132 0.0 0.0 0.00 0.00 0.00 72 1018.6
20260510164426 60 132 0.0 0.0 0.00 0.00 0.00 72 1018.6
20260510163926 61 50 0.0 0.0 0.00 0.00 0.00 70 1018.5
20260510163356 60 68 0.0 0.0 0.00 0.00 0.00 71 1018.5
20260510162926 60 140 0.0 0.0 0.00 0.00 0.00 70 1018.5
20260510161926 59 124 0.0 0.0 0.00 0.00 0.00 73 1018.4
20260510161426 59 180 0.0 0.0 0.00 0.00 0.00 73 1018.4
20260510160926 59 167 0.0 0.0 0.00 0.00 0.00 75 1018.6
20260510155926 58 193 0.0 0.0 0.00 0.00 0.00 75 1018.6
20260510155426 58 163 0.0 0.0 0.00 0.00 0.00 77 1018.3
20260510154925 59 147 0.0 0.0 0.00 0.00 0.00 79 1018.3
20260510153855 58 154 0.0 0.0 0.00 0.00 0.00 81 1018.3
20260510150925 55 163 0.0 0.0 0.00 0.00 0.00 92 1018.1
20260510145925 54 163 0.0 0.0 0.00 0.00 0.00 93 1018.1
20260510142925 50 360 0.0 0.0 0.00 0.00 0.00 95 1017.9
20260510134925 48 77 0.0 0.0 0.00 0.00 0.00 95 1017.3
20260510134355 48 77 0.0 0.0 0.00 0.00 0.00 95 1017.3
20260510133925 48 77 0.0 0.0 0.00 0.00 0.00 95 1017.3
20260510133355 48 77 0.0 0.0 0.00 0.00 0.00 95 1017.3
20260510132925 47 77 0.0 0.0 0.00 0.00 0.00 94 1017.3
20260510132425 47 77 0.0 0.0 0.00 0.00 0.00 94 1017.3
20260510131425 47 77 0.0 0.0 0.00 0.00 0.00 94 1017.3
20260510130925 47 77 0.0 0.0 0.00 0.00 0.00 94 1017.3
20260510130424 47 77 0.0 0.0 0.00 0.00 0.00 93 1017.3
20260510125925 47 77 0.0 0.0 0.00 0.00 0.00 94 1017.3
20260510125425 47 77 0.0 0.0 0.00 0.00 0.00 94 1017.0
20260510124925 47 77 0.0 0.0 0.00 0.00 0.00 93 1017.0
20260510124425 47 77 0.0 0.0 0.00 0.00 0.00 93 1017.0
20260510123925 47 77 0.0 0.0 0.00 0.00 0.00 93 1017.1
20260510123424 48 77 0.0 0.0 0.00 0.00 0.00 93 1017.1
20260510122924 48 77 0.0 0.0 0.00 0.00 0.00 93 1017.1
20260510122425 48 77 0.0 0.0 0.00 0.00 0.00 93 1017.3
20260510121925 48 77 0.0 0.0 0.00 0.00 0.00 93 1017.3
20260510121425 48 77 0.0 0.0 0.00 0.00 0.00 93 1017.3
20260510120925 48 77 0.0 0.0 0.00 0.00 0.00 93 1017.0
20260510120424 48 77 0.0 0.0 0.00 0.00 0.00 93 1017.0
20260510115925 48 77 0.0 0.0 0.00 0.00 0.00 92 1017.0
20260510115425 48 77 0.0 0.0 0.00 0.00 0.00 92 1016.9
20260510114924 48 78 0.0 0.0 0.00 0.00 0.00 92 1016.9
20260510114424 48 77 0.0 0.0 0.00 0.00 0.00 92 1016.9
20260510113924 48 78 0.0 0.0 0.00 0.00 0.00 92 1016.9
20260510113424 48 78 0.0 0.0 0.00 0.00 0.00 93 1016.9
20260510112924 48 78 0.0 0.0 0.00 0.00 0.00 92 1016.9
20260510112425 48 78 0.0 0.0 0.00 0.00 0.00 92 1016.7
20260510111924 48 78 0.0 0.0 0.00 0.00 0.00 92 1016.7
20260510111424 48 78 0.0 0.0 0.00 0.00 0.00 92 1016.7
20260510110924 48 78 0.0 0.0 0.00 0.00 0.00 92 1017.0
20260510110424 48 78 0.0 0.0 0.00 0.00 0.00 92 1017.0
20260510105924 48 78 0.0 0.0 0.00 0.00 0.00 92 1017.0
20260510105424 49 77 0.0 0.0 0.00 0.00 0.00 92 1016.8
20260510104924 49 78 0.0 0.0 0.00 0.00 0.00 91 1016.8
20260510104424 49 78 0.0 0.0 0.00 0.00 0.00 91 1016.8
20260510103923 49 78 0.0 0.0 0.00 0.00 0.00 91 1016.3
20260510103423 49 78 0.0 0.0 0.00 0.00 0.00 91 1016.3
20260510102924 49 78 0.0 0.0 0.00 0.00 0.00 91 1016.3
20260510102423 49 78 0.0 0.0 0.00 0.00 0.00 90 1016.3
20260510101923 50 78 0.0 0.0 0.00 0.00 0.00 90 1016.3
20260510101424 50 78 0.0 0.0 0.00 0.00 0.00 90 1016.3
20260510100923 50 78 0.0 0.0 0.00 0.00 0.00 89 1016.2
20260510100423 50 78 0.0 0.0 0.00 0.00 0.00 89 1016.2
20260510095923 50 78 0.0 0.0 0.00 0.00 0.00 89 1016.2
20260510095423 50 78 0.0 0.0 0.00 0.00 0.00 89 1015.9
20260510094924 50 78 0.0 0.0 0.00 0.00 0.00 89 1015.9
20260510094423 51 78 0.0 0.0 0.00 0.00 0.00 89 1015.9
20260510093923 51 79 0.0 0.0 0.00 0.00 0.00 89 1015.7
20260510093423 51 360 0.0 0.0 0.00 0.00 0.00 89 1015.7
20260510092923 51 360 0.0 0.0 0.00 0.00 0.00 89 1015.7
20260510092424 51 360 0.0 0.0 0.00 0.00 0.00 89 1015.8
20260510091924 51 360 0.0 0.0 0.00 0.00 0.00 89 1015.8
20260510091423 52 360 0.0 0.0 0.00 0.00 0.00 88 1015.8
20260510085423 52 82 0.0 0.0 0.00 0.00 0.00 87 1016.0
20260510084923 53 360 0.0 0.0 0.00 0.00 0.00 87 1016.0
20260510084424 53 360 0.0 0.0 0.00 0.00 0.00 86 1016.0
20260510083923 53 360 0.0 0.0 0.00 0.00 0.00 86 1015.9
20260510083423 53 81 0.0 0.0 0.00 0.00 0.00 86 1015.9
20260510082923 53 81 0.0 0.0 0.00 0.00 0.00 86 1015.9
20260510082423 53 360 0.0 0.0 0.00 0.00 0.00 86 1015.6
20260510081923 54 360 0.0 0.0 0.00 0.00 0.00 85 1015.6
20260510081423 54 77 0.0 0.0 0.00 0.00 0.00 84 1015.6
20260510080923 54 76 0.0 0.0 0.00 0.00 0.00 84 1015.7
20260510080423 54 76 0.0 0.0 0.00 0.00 0.00 84 1015.7
20260510075923 54 76 0.0 0.0 0.00 0.00 0.00 83 1015.7
20260510075423 54 76 0.0 0.0 0.00 0.00 0.00 82 1015.6
20260510074923 55 76 0.0 0.0 0.00 0.00 0.00 82 1015.6
20260510074423 55 76 0.0 0.0 0.00 0.00 0.00 82 1015.6
20260510073923 55 76 0.0 0.0 0.00 0.00 0.00 81 1015.6
20260510073423 55 76 0.0 0.0 0.00 0.00 0.00 81 1015.6
20260510072922 55 76 0.0 0.0 0.00 0.00 0.00 81 1015.6
20260510072422 55 76 0.0 0.0 0.00 0.00 0.00 80 1015.5
20260510071922 55 76 0.0 0.0 0.00 0.00 0.00 80 1015.5
20260510071423 55 76 0.0 0.0 0.00 0.00 0.00 79 1015.5
20260510065922 56 76 0.0 0.0 0.00 0.00 0.00 77 1015.4
20260510065423 56 76 0.0 0.0 0.00 0.00 0.00 77 1015.4
20260510064923 56 77 0.0 1.0 0.00 0.00 0.00 76 1015.4
20260510064423 56 77 0.0 1.0 0.00 0.00 0.00 76 1015.4
20260510063923 56 76 0.0 2.0 0.00 0.00 0.00 76 1015.2
20260510063423 57 76 1.0 2.0 0.00 0.00 0.00 75 1015.2
20260510062922 57 74 0.0 0.0 0.00 0.00 0.00 75 1015.2
20260510062422 57 74 0.0 0.0 0.00 0.00 0.00 74 1015.1
20260510061922 57 74 0.0 0.0 0.00 0.00 0.00 74 1015.1
20260510061423 58 74 0.0 1.0 0.00 0.00 0.00 74 1015.1
20260510055922 59 87 0.0 0.0 0.00 0.00 0.00 71 1015.1
20260510055423 59 88 0.0 0.0 0.00 0.00 0.00 70 1015.1
20260510054922 60 87 0.0 0.0 0.00 0.00 0.00 69 1015.1
20260510054422 60 87 0.0 0.0 0.00 0.00 0.00 69 1015.1
20260510053922 60 87 0.0 0.0 0.00 0.00 0.00 69 1015.1
20260510053422 60 88 0.0 0.0 0.00 0.00 0.00 69 1015.1
20260510052922 61 87 0.0 0.0 0.00 0.00 0.00 68 1015.1
20260510052422 61 87 0.0 0.0 0.00 0.00 0.00 67 1015.0
20260510051922 61 87 0.0 2.0 0.00 0.00 0.00 66 1015.0
20260510051422 62 87 0.0 2.0 0.00 0.00 0.00 65 1015.0
20260510050922 62 182 0.0 2.0 0.00 0.00 0.00 65 1014.6
20260510045922 63 284 0.0 0.0 0.00 0.00 0.00 60 1014.6
20260510045422 64 284 0.0 0.0 0.00 0.00 0.00 59 1014.6
20260510044922 64 284 0.0 0.0 0.00 0.00 0.00 57 1014.6
20260510044421 65 284 0.0 0.0 0.00 0.00 0.00 56 1014.6
20260510043922 65 284 0.0 0.0 0.00 0.00 0.00 55 1014.4
20260510043422 65 284 0.0 1.0 0.00 0.00 0.00 53 1014.4
20260510042922 66 284 0.0 1.0 0.00 0.00 0.00 53 1014.4
20260510041921 66 238 0.0 0.0 0.00 0.00 0.00 53 1014.2
20260510041421 66 238 0.0 1.0 0.00 0.00 0.00 53 1014.2
20260510040921 66 238 0.0 1.0 0.00 0.00 0.00 53 1014.1
20260510040421 66 238 0.0 1.0 0.00 0.00 0.00 53 1014.1
20260510035921 67 238 0.0 2.0 0.00 0.00 0.00 53 1014.2
20260510035421 67 230 0.0 2.0 0.00 0.00 0.00 52 1014.0
20260510034922 67 286 0.0 0.0 0.00 0.00 0.00 51 1014.0
20260510034421 68 286 0.0 1.0 0.00 0.00 0.00 50 1014.0
20260510033921 68 286 0.0 1.0 0.00 0.00 0.00 48 1013.8
20260510030921 70 341 0.0 0.0 0.00 0.00 0.00 45 1013.8
20260510030421 70 344 0.0 0.0 0.00 0.00 0.00 47 1013.8
20260510025921 70 344 0.0 0.0 0.00 0.00 0.00 47 1013.8
20260510025421 71 344 0.0 0.0 0.00 0.00 0.00 49 1013.6
20260510024921 71 344 0.0 0.0 0.00 0.00 0.00 48 1013.6
20260510024421 72 344 0.0 0.0 0.00 0.00 0.00 48 1013.7
20260510023921 72 344 0.0 0.0 0.00 0.00 0.00 46 1013.7
20260510023421 72 344 0.0 0.0 0.00 0.00 0.00 47 1013.7
20260510022921 72 344 0.0 1.0 0.00 0.00 0.00 44 1013.7
20260510021921 73 345 0.0 0.0 0.00 0.00 0.00 42 1013.7
20260510021421 73 338 0.0 0.0 0.00 0.00 0.00 40 1013.7
20260510020920 74 338 0.0 0.0 0.00 0.00 0.00 36 1013.7
20260510020420 74 338 0.0 0.0 0.00 0.00 0.00 35 1013.7
20260510015920 74 338 0.0 0.0 0.00 0.00 0.00 37 1013.7
20260510015420 74 338 0.0 0.0 0.00 0.00 0.00 36 1013.7
20260510014920 74 338 0.0 0.0 0.00 0.00 0.00 37 1013.7
20260510013920 75 338 0.0 0.0 0.00 0.00 0.00 36 1013.8
20260510013420 75 338 0.0 1.0 0.00 0.00 0.00 38 1013.8
20260510012920 75 338 0.0 1.0 0.00 0.00 0.00 34 1013.8
20260510012421 75 338 0.0 0.0 0.00 0.00 0.00 35 1014.0
20260510011920 75 338 0.0 1.0 0.00 0.00 0.00 34 1014.0
20260510011420 75 338 0.0 2.0 0.00 0.00 0.00 35 1014.0
20260510010920 75 338 0.0 2.0 0.00 0.00 0.00 34 1014.1
20260510010420 76 142 0.0 2.0 0.00 0.00 0.00 35 1014.1
20260510005920 76 141 0.0 2.0 0.00 0.00 0.00 34 1014.1
20260510005420 76 142 1.0 2.0 0.00 0.00 0.00 33 1014.1
20260510004920 76 140 1.0 2.0 0.00 0.00 0.00 32 1014.1
20260510004420 76 75 1.0 2.0 0.00 0.00 0.00 36 1014.1
20260510003920 76 72 0.0 2.0 0.00 0.00 0.00 33 1014.1
20260510003420 76 74 0.0 2.0 0.00 0.00 0.00 31 1014.1
20260510002920 76 46 0.0 2.0 0.00 0.00 0.00 32 1014.1
20260510002420 76 48 2.0 2.0 0.00 0.00 0.00 29 1014.2
20260510001920 76 133 0.0 2.0 0.00 0.00 0.00 27 1014.2
20260510001420 76 133 0.0 2.0 0.00 0.00 0.00 27 1014.2
20260510000919 76 30 0.0 5.0 0.00 0.00 0.00 27 1014.5
20260510000419 76 15 0.0 5.0 0.00 0.00 0.00 28 1014.5
20260509235920 76 10 5.0 5.0 0.00 0.00 0.00 26 1014.5
20260509235419 76 91 1.0 5.0 0.00 0.00 0.00 26 1014.6
20260509234919 76 121 3.0 8.0 0.00 0.00 0.00 28 1014.6
20260509234420 76 56 1.0 8.0 0.00 0.00 0.00 26 1014.6
20260509233920 77 38 2.0 5.0 0.00 0.00 0.00 29 1014.7
20260509232919 76 106 2.0 5.0 0.00 0.00 0.00 28 1014.7
20260509232420 76 94 0.0 5.0 0.00 0.00 0.00 30 1014.7
20260509231919 76 63 2.0 5.0 0.00 0.00 0.00 31 1014.7
20260509230920 75 49 1.0 6.0 0.00 0.00 0.00 32 1015.0
20260509230419 75 31 0.0 6.0 0.00 0.00 0.00 35 1015.0
20260509225919 75 37 1.0 6.0 0.00 0.00 0.00 34 1015.0
20260509225419 75 73 0.0 5.0 0.00 0.00 0.00 36 1015.2
20260509224919 75 61 0.0 7.0 0.00 0.00 0.00 36 1015.2
20260509224419 75 42 1.0 7.0 0.00 0.00 0.00 36 1015.2
20260509223919 75 54 0.0 6.0 0.00 0.00 0.00 38 1015.4
20260509223419 75 190 2.0 5.0 0.00 0.00 0.00 41 1015.4
20260509222919 75 127 0.0 7.0 0.00 0.00 0.00 41 1015.4
20260509222419 75 59 2.0 7.0 0.00 0.00 0.00 43 1015.7
20260509221919 75 31 7.0 7.0 0.00 0.00 0.00 41 1015.7
20260509221419 75 45 5.0 7.0 0.00 0.00 0.00 42 1015.7
20260509220919 75 59 1.0 7.0 0.00 0.00 0.00 44 1016.1
20260509220419 75 71 0.0 6.0 0.00 0.00 0.00 41 1016.1
20260509215919 75 56 2.0 5.0 0.00 0.00 0.00 40 1016.1
20260509215419 75 49 0.0 8.0 0.00 0.00 0.00 38 1016.2